Miscellaneous Local Product
Issued by NWS North Platte, NE

Home | Current Version | Previous Version | Graphics & Text | Print | Product List | Glossary On
Versions: 1 2 3 4 5 6 7 8 9 10 11 12 13 14 15 16 17 18 19 20 21 22 23 24 25 26 27 28 29 30 31 32 33 34 35 36 37 38 39 40 41 42 43 44 45 46 47 48 49 50
000
AXUS43 KLBF 211610
MISLBF


WESTERN AND NORTH CENTRAL NEBRASKA HOURLY WEATHER ROUNDUP
NATIONAL WEATHER SERVICE NORTH PLATTE NE
1100 AM CDT MON AUG 21 2017

NOTE: "FAIR" INDICATES FEW OR NO CLOUDS BELOW 12,000 FEET WITH NO
SIGNIFICANT WEATHER AND/OR OBSTRUCTIONS TO VISIBILITY.

NOTE: STATIONS NOT REPORTING VARIABLES SUCH AS SKY/WEATHER OR
PRESSURE ARE PROVIDED BY RAWS AND APRS NETWORKS AND ARE NOT UNDER
NATIONAL WEATHER SERVICE QUALITY CONTROL.

...OBSERVATIONS IN AND NEAR THE EASTERN PANHANDLE OF NEBRASKA...

CITY           SKY/WX    TMP DP  RH WIND       PRES   REMARKS
PINE RIDGE     PTSUNNY   76  66  71 N8        30.04R
GORDON         CLOUDY    74  66  76 N15       30.03R
CHADRON        PTSUNNY   73  63  70 NW8       30.05R
ALLIANCE       MOSUNNY   74  60  61 N15       30.04R
SIDNEY         SUNNY     83  52  34 N15       30.06R
$$

...OBSERVATIONS IN NORTHERN NEBRASKA AND FAR SOUTHERN SOUTH DAKOTA...

CITY           SKY/WX    TMP DP  RH WIND       PRES   REMARKS
WINNER         TSTM      63  62  97 N21G33    29.98  VSB 1/2
VALENTINE      CLOUDY    72  67  84 SW7       29.98R HAZE
THEDFORD       CLOUDY    74  69  85 CALM      29.98R
AINSWORTH      FOG       70  70 100 SE5       29.97R VSB 3/4
O`NEILL        CLOUDY    71  71  98 SE6       29.95S
ORD            SUNNY     79  67  66 S13G18    29.90F
BROKEN BOW     SUNNY     79  69  71 SW10      29.93F
HALSEY           N/A     70  70 100 CALM        N/A
BUTTE            N/A     71  68  91 E8          N/A
CHAMBERS         N/A     82  73  74 W3          N/A
EWING            N/A     78  72  82 S6G13       N/A
$$

...OBSERVATIONS IN SOUTHWEST NEBRASKA AND FAR NORTHEAST COLORADO...

CITY           SKY/WX    TMP DP  RH WIND       PRES   REMARKS
HOLYOKE        FAIR      77  68  73 NW9       30.02S
IMPERIAL       SUNNY     80  64  58 VRB3      29.97F
OGALLALA       CLOUDY    74  69  85 NW9       30.00S
NORTH PLATTE   SUNNY     80  69  69 S9        29.95F
MCCOOK         MOSUNNY   82  64  54 S13       29.96S
LEXINGTON      SUNNY     80  67  64 S12       29.95S
STAPLETON        N/A     78  71  78 CALM        N/A
GOTHENBURG       N/A     77  63  62 S3          N/A
CALLAWAY         N/A     74  72  94 S7          N/A
$$

...OBSERVATIONS IN CENTRAL LINCOLN COUNTY AREA...

CITY           SKY/WX    TMP DP  RH WIND       PRES   REMARKS
N.P. AIRPORT   SUNNY     80  69  69 S9        29.95F
N.P. DOWNTOWN    N/A     82  71  68 CALM        N/A
N.P. SOUTHEAST   N/A     80  70  70 S6          N/A
N.P. HILLCREST   N/A     79  70  74 S5          N/A
$$

...SOME OBSERVATIONS FROM AROUND THE REGION...

CITY           SKY/WX    TMP DP  RH WIND       PRES   REMARKS
DENVER         MOSUNNY   80  45  28 VRB5      30.15R
LIMON          CLOUDY    82  46  28 N9        30.13R
ASPEN          SUNNY     69  39  33 CALM      30.35F
LARAMIE        SUNNY     68  37  32 VRB3      30.30S
CASPER         SUNNY     71  37  28 NE7       30.23R
CHEYENNE       SUNNY     74  39  28 N20G25    30.20R
SCOTTSBLUFF    SUNNY     75  56  51 W10       30.07R
GRAND ISLAND   MOSUNNY   81  71  71 S10       29.96S
OMAHA          PTSUNNY   78  66  66 SE25G31   30.00F
SIOUX FALLS    CLOUDY    74  66  76 NE7       29.98R THUNDER
PIERRE         CLOUDY    61  60  97 CALM      29.95R
RAPID CITY     SUNNY     74  51  44 N26G35    30.07R
BISMARCK       SUNNY     70  56  61 W9        29.99R
KANSAS CITY    CLOUDY    76  69  79 S15       30.09R
HILL CITY      CLOUDY    80  66  62 S13G22    30.00S
WICHITA        MOSUNNY   87  73  62 S17       30.03S HX  94
DODGE CITY     CLOUDY    78  65  63 S17       30.06S
OKLAHOMA CITY  MOSUNNY   86  70  58 S15       30.08S HX  90
DALLAS         SUNNY     90  70  51 S10       30.08R HX  95
AMARILLO       CLOUDY    73  67  81 SW10      30.17S
$$




USA.gov is the U.S. government's official web portal to all federal, state and local government web resources and services.